Weather History for Hibbing, MN

Change the Weather History Date:

Friday, March 15, 2013

  Actual Average Record
Temperature  
Mean Temperature 23 °F -  
Max Temperature 33 °F 34 °F 55 °F (2003)
Min Temperature 12 °F 11 °F -13 °F (1979)
Degree Days  
Heating Degree Days 42    
Moisture  
Dew Point 11 °F    
Average Humidity 68    
Maximum Humidity 79    
Minimum Humidity 37    
Precipitation  
Precipitation 0.01 in - - ()
Sea Level Pressure  
Sea Level Pressure 30.01 in    
Wind  
Wind Speed 10 mph (NNE)    
Max Wind Speed 14 mph    
Max Gust Speed 21 mph    
Visibility 6 miles    
Events Snow    
Averages and records for this station are not official NWS values.
T = Trace of Precipitation, MM = Missing Value Source: NWS Daily Summary

Daily Weather History Graph

Daily Weather History Graph

Search for Another Location

Airport:

Trip Planner

Search our weather history database for the weather conditions in past years. The results will help you decide how hot, cold, wet, or windy it might be!

Date:

Astronomy

Mar. 15, 2013 Rise Set
Actual Time 7:23 AM CDT 7:17 PM CDT
Civil Twilight 6:53 AM CDT 7:47 PM CDT
Nautical Twilight 6:17 AM CDT 8:23 PM CDT
Astronomical Twilight 5:41 AM CDT 9:00 PM CDT
Moon 8:56 AM CDT (3/15) 11:51 PM CDT (3/15)
Length of Visible Light 12h 54m
Length of Day
11h 53m
Waxing Crescent, 15% of the Moon is Illuminated
Mar 15
Waxing Crescent
Mar 19
First Quarter
Mar 27
Full
Apr 2
Last Quarter
Apr 10
New

Hourly Weather History & Observations

Time (CDT) Temp. Windchill Dew Point Humidity Pressure Visibility Wind Dir Wind Speed Gust Speed Precip Events Conditions
12:53 AM 34.0 °F 25.0 °F 26.1 °F 73% 30.00 in 10.0 mi North 12.7 mph - N/A   Overcast
1:27 AM 33.8 °F 25.3 °F 26.6 °F 75% 29.94 in 10.0 mi North 11.5 mph - N/A   Overcast
1:53 AM 32.0 °F 23.6 °F 25.0 °F 75% 30.00 in 10.0 mi North 10.4 mph - N/A   Overcast
2:29 AM 30.2 °F 21.3 °F 23.0 °F 75% 29.95 in 10.0 mi North 10.4 mph - N/A   Overcast
2:53 AM 30.0 °F 21.1 °F 23.0 °F 75% 30.01 in 10.0 mi North 10.4 mph - N/A   Overcast
3:36 AM 28.4 °F 18.5 °F 21.2 °F 74% 29.96 in 10.0 mi North 11.5 mph - N/A   Overcast
3:53 AM 28.0 °F 18.6 °F 19.0 °F 69% 30.01 in 10.0 mi North 10.4 mph - N/A   Overcast
4:53 AM 27.0 °F 19.5 °F 18.0 °F 69% 30.01 in 10.0 mi North 6.9 mph - N/A   Overcast
5:53 AM 26.1 °F 15.6 °F 16.0 °F 66% 30.04 in 10.0 mi North 11.5 mph - N/A   Overcast
6:53 AM 23.0 °F 11.7 °F 14.0 °F 68% 30.06 in 10.0 mi North 11.5 mph - N/A   Mostly Cloudy
7:06 AM 21.2 °F 9.5 °F 12.2 °F 68% 30.00 in 10.0 mi North 11.5 mph - N/A   Mostly Cloudy
7:53 AM 21.0 °F 8.1 °F 10.0 °F 63% 30.07 in 10.0 mi NNE 13.8 mph 20.7 mph N/A   Mostly Cloudy
8:53 AM 19.9 °F 8.6 °F 10.0 °F 65% 30.08 in 10.0 mi NNE 10.4 mph - N/A   Mostly Cloudy
9:53 AM 19.9 °F 7.3 °F 10.0 °F 65% 30.07 in 10.0 mi NE 12.7 mph - N/A   Overcast
10:53 AM 19.9 °F 10.1 °F 7.0 °F 57% 30.06 in 10.0 mi NE 8.1 mph 17.3 mph 0.00 in   Overcast
11:53 AM 21.9 °F 13.4 °F 7.0 °F 53% 30.07 in 10.0 mi Variable 6.9 mph - N/A   Overcast
12:53 PM 23.0 °F 15.8 °F 7.0 °F 50% 30.05 in 10.0 mi North 5.8 mph - 0.00 in   Overcast
1:53 PM 25.0 °F 17.1 °F 6.1 °F 45% 30.04 in 10.0 mi NE 6.9 mph - 0.00 in   Overcast
2:53 PM 26.1 °F 17.6 °F 3.0 °F 37% 30.01 in 10.0 mi NE 8.1 mph - N/A   Overcast
3:53 PM 26.1 °F 18.4 °F 3.9 °F 39% 30.00 in 10.0 mi NE 6.9 mph - N/A   Overcast
4:53 PM 25.0 °F 16.3 °F 1.9 °F 37% 29.99 in 10.0 mi NE 8.1 mph - N/A   Overcast
5:53 PM 23.0 °F 13.1 °F 3.9 °F 44% 30.01 in 10.0 mi North 9.2 mph - N/A   Overcast
6:29 PM 19.4 °F 7.2 °F 10.4 °F 68% 29.95 in 1.8 mi North 11.5 mph - 0.00 in Snow Light Snow
6:53 PM 19.0 °F 9.0 °F 12.0 °F 74% 30.03 in 1.2 mi North 8.1 mph - 0.00 in Snow Light Snow
7:53 PM 17.1 °F 6.6 °F 10.9 °F 77% 30.04 in 2.0 mi NNE 8.1 mph - 0.00 in Snow Light Snow
8:06 PM 17.6 °F 6.4 °F 10.4 °F 73% 29.96 in 1.5 mi NNE 9.2 mph - 0.00 in Snow Light Snow
8:44 PM 15.8 °F 6.1 °F 10.4 °F 79% 29.97 in 1.0 mi NNE 6.9 mph - 0.00 in Snow Light Snow
8:53 PM 16.0 °F 4.4 °F 10.0 °F 77% 30.05 in 1.0 mi NNE 9.2 mph - 0.00 in Snow Light Snow
9:10 PM 15.8 °F 4.2 °F 8.6 °F 73% 29.97 in 1.5 mi NNE 9.2 mph - 0.00 in Snow Light Snow
9:32 PM 15.8 °F 5.1 °F 8.6 °F 73% 29.96 in 2.0 mi NNE 8.1 mph - 0.01 in Snow Light Snow
9:53 PM 15.1 °F 4.2 °F 9.0 °F 77% 30.06 in 1.5 mi NNE 8.1 mph - 0.01 in Snow Light Snow
10:07 PM 15.8 °F 6.1 °F 8.6 °F 73% 29.98 in 3.0 mi NNE 6.9 mph - 0.00 in Snow Light Snow
10:14 PM 15.8 °F 5.1 °F 8.6 °F 73% 29.98 in 4.0 mi NNE 8.1 mph - 0.00 in Snow Light Snow
10:27 PM 15.8 °F 4.2 °F 8.6 °F 73% 29.98 in 2.5 mi NNE 9.2 mph - 0.00 in Snow Light Snow
10:36 PM 15.8 °F 5.1 °F 8.6 °F 73% 29.98 in 3.0 mi NNE 8.1 mph - 0.00 in Snow Light Snow
10:53 PM 14.0 °F 2.9 °F 8.1 °F 77% 30.07 in 3.0 mi NNE 8.1 mph - 0.00 in Snow Light Snow
10:57 PM 14.0 °F 2.0 °F 8.6 °F 79% 29.99 in 2.5 mi NNE 9.2 mph - 0.00 in Snow Light Snow
11:09 PM 14.0 °F 3.9 °F 8.6 °F 79% 29.99 in 1.8 mi North 6.9 mph - 0.00 in Snow Light Snow
11:16 PM 14.0 °F 1.2 °F 8.6 °F 79% 29.99 in 2.5 mi North 10.4 mph - 0.00 in Snow Light Snow
11:24 PM 14.0 °F 2.9 °F 6.8 °F 73% 29.99 in 3.0 mi North 8.1 mph - 0.00 in Snow Light Snow
11:32 PM 14.0 °F 2.9 °F 6.8 °F 73% 29.99 in 2.5 mi NNE 8.1 mph - 0.00 in Snow Light Snow
11:46 PM 12.2 °F 1.7 °F 6.8 °F 79% 29.99 in 3.0 mi NNE 6.9 mph - 0.00 in Snow Light Snow
11:53 PM 12.9 °F 1.6 °F 7.0 °F 77% 30.07 in 2.5 mi NNE 8.1 mph - 0.00 in Snow Light Snow